contact:dominique.lefevre@mio.osupytheas.fr, maurice.libes@osupytheas.fr, didier.mallarino@osupytheas.fr
Project:EMSO http://www.emso-fr.org/EMSO-France
Depth: 2436.0 m
Title:EMSO Ligure Ouest : Data MII capteur AQUADOPP
Date,Latitude,Longitude,X_East,Y_North,Z_Up,Amplitude_X,Amplitude_Y,Amplitude_Z,Batterie,SoundSpeed,Heading,Pitch,Roll,Pressure,TIS,Speed,Direction
, degrees North, degrees East, m.s-1, m.s-1,m.s-1, 1, 1, 1, Volt, m.s-1, degree, degree, degree, dbar, degree_C, m.s-1, degree
2023-06-08T00:04:03,42.805,6.029,0.007,0.024,0.019,102.0,100.0,100.0,13.4,1505.2,345.0,-0.7,1.8,2471.564,13.29,0.025,16.3
2023-06-08T00:07:04,42.805,6.029,0.006,0.014,-0.016,102.0,101.0,101.0,13.4,1505.2,331.9,-0.8,1.8,2471.524,13.29,0.015,23.2
2023-06-08T00:10:03,42.805,6.029,0.001,0.032,-0.014,102.0,100.0,101.0,13.3,1505.2,330.3,-0.8,1.8,2471.524,13.29,0.032,1.8
2023-06-08T00:13:03,42.805,6.029,-0.011,0.009,-0.037,102.0,102.0,100.0,13.3,1505.2,345.7,-0.8,1.8,2471.539,13.29,0.014,309.3
2023-06-08T00:16:03,42.805,6.029,0.019,0.007,-0.011,101.0,102.0,100.0,13.3,1505.2,318.8,-0.8,1.8,2471.524,13.29,0.02,69.8
2023-06-08T00:19:03,42.805,6.029,-0.023,0.02,-0.022,103.0,102.0,100.0,13.4,1505.2,325.4,-0.7,1.8,2471.515,13.29,0.03,311.0
2023-06-08T00:22:03,42.805,6.029,-0.017,0.026,-0.018,101.0,101.0,100.0,13.4,1505.2,337.0,-0.8,1.8,2471.525,13.29,0.031,326.8
2023-06-08T00:25:03,42.805,6.029,0.018,0.034,0.013,100.0,102.0,100.0,13.3,1505.2,349.7,-0.8,1.8,2471.475,13.29,0.038,27.9
2023-06-08T00:28:03,42.805,6.029,-0.031,0.0,-0.041,101.0,101.0,100.0,13.4,1505.2,325.5,-0.8,1.8,2471.494,13.29,0.03,270.0
2023-06-08T00:31:04,42.805,6.029,0.006,0.005,-0.025,101.0,101.0,101.0,13.3,1505.2,329.8,-0.8,1.8,2471.488,13.29,0.007,50.2
2023-06-08T00:34:03,42.805,6.029,0.016,-0.001,-0.04,102.0,102.0,100.0,13.4,1505.2,326.5,-0.8,1.8,2471.465,13.29,0.016,93.6
2023-06-08T00:37:03,42.805,6.029,0.005,0.033,-0.033,101.0,102.0,101.0,13.3,1505.2,335.5,-0.7,1.8,2471.464,13.29,0.033,8.6
2023-06-08T00:40:03,42.805,6.029,0.018,0.023,0.003,101.0,101.0,102.0,13.4,1505.2,321.4,-0.8,1.8,2471.445,13.29,0.029,38.0
2023-06-08T00:43:03,42.805,6.029,0.004,0.021,-0.002,100.0,107.0,101.0,13.4,1505.2,337.1,-0.8,1.8,2471.513,13.29,0.021,10.8
2023-06-08T00:46:03,42.805,6.029,0.017,0.013,-0.003,101.0,102.0,100.0,13.3,1505.2,345.2,-0.8,1.8,2471.538,13.29,0.021,52.6
2023-06-08T00:49:03,42.805,6.029,0.001,0.024,0.001,99.0,100.0,101.0,13.3,1505.2,339.0,-0.8,1.8,2471.491,13.29,0.024,2.4
2023-06-08T00:52:03,42.805,6.029,0.007,0.012,0.009,101.0,102.0,101.0,13.4,1505.2,326.3,-0.8,1.8,2471.503,13.29,0.013,30.3
2023-06-08T00:55:03,42.805,6.029,-0.013,0.024,-0.013,101.0,101.0,101.0,13.4,1505.2,347.0,-0.7,1.8,2471.463,13.29,0.027,331.6
2023-06-08T00:58:03,42.805,6.029,-0.033,0.026,-0.039,100.0,101.0,102.0,13.3,1505.2,320.7,-0.8,1.8,2471.486,13.29,0.042,308.2
2023-06-08T01:04:03,42.805,6.029,-0.017,0.012,-0.017,101.0,102.0,102.0,13.3,1505.2,328.5,-0.8,1.8,2471.517,13.29,0.02,305.2
2023-06-08T01:07:03,42.805,6.029,-0.005,0.035,0.007,101.0,100.0,100.0,13.4,1505.2,339.7,-0.8,1.8,2471.517,13.29,0.035,351.9
2023-06-08T01:10:03,42.805,6.029,0.03,0.016,0.007,100.0,102.0,100.0,13.4,1505.2,341.5,-0.8,1.9,2471.493,13.29,0.034,61.9
2023-06-08T01:13:03,42.805,6.029,0.0,0.026,-0.032,102.0,101.0,100.0,13.3,1505.2,333.4,-0.8,1.8,2471.491,13.29,0.026,0.0
2023-06-08T01:16:03,42.805,6.029,0.003,0.006,-0.004,102.0,101.0,100.0,13.4,1505.2,325.7,-0.7,1.8,2471.484,13.29,0.006,26.6
2023-06-08T01:19:03,42.805,6.029,0.002,0.011,-0.037,102.0,102.0,100.0,13.4,1505.2,349.5,-0.8,1.8,2471.49,13.29,0.011,10.3
2023-06-08T01:22:03,42.805,6.029,0.002,0.022,0.002,103.0,100.0,100.0,13.4,1505.2,323.1,-0.8,1.8,2471.476,13.29,0.022,5.2
2023-06-08T01:25:12,42.805,6.029,0.027,0.022,0.01,101.0,102.0,101.0,13.4,1505.2,336.2,-0.8,1.8,2471.483,13.29,0.034,50.8
2023-06-08T01:28:03,42.805,6.029,-0.02,0.031,-0.011,100.0,101.0,101.0,13.3,1505.2,326.8,-0.8,1.8,2471.467,13.29,0.036,327.2
2023-06-08T01:31:03,42.805,6.029,0.005,0.008,-0.034,102.0,101.0,101.0,13.4,1505.2,327.8,-0.7,1.8,2471.47,13.29,0.009,32.0
2023-06-08T01:34:03,42.805,6.029,0.004,0.019,-0.008,101.0,102.0,100.0,13.3,1505.2,342.3,-0.8,1.8,2471.468,13.29,0.019,11.9
2023-06-08T01:37:03,42.805,6.029,0.014,0.018,0.021,101.0,102.0,100.0,13.4,1505.2,332.6,-0.8,1.8,2471.419,13.29,0.022,37.9
2023-06-08T01:40:11,42.805,6.029,0.018,0.025,-0.01,103.0,103.0,100.0,13.4,1505.2,319.1,-0.7,1.8,2471.422,13.29,0.03,35.8
2023-06-08T01:43:06,42.805,6.029,0.008,0.004,0.025,102.0,102.0,100.0,13.4,1505.2,328.5,-0.7,1.8,2471.45,13.29,0.008,63.4
2023-06-08T01:46:14,42.805,6.029,0.012,0.001,-0.015,101.0,102.0,102.0,13.4,1505.2,341.9,-0.8,1.8,2471.44,13.29,0.012,85.2
2023-06-08T01:49:04,42.805,6.029,0.039,0.008,0.017,101.0,102.0,101.0,13.4,1505.2,330.5,-0.8,1.8,2471.455,13.29,0.039,78.4
2023-06-08T01:52:04,42.805,6.029,0.013,0.014,0.011,102.0,100.0,101.0,13.4,1505.2,323.1,-0.8,1.8,2471.423,13.29,0.019,42.9
2023-06-08T01:55:03,42.805,6.029,0.003,0.052,0.051,102.0,101.0,102.0,13.4,1505.2,338.0,-0.7,1.8,2471.439,13.29,0.052,3.3
2023-06-08T01:58:03,42.805,6.029,0.01,0.011,-0.006,101.0,104.0,101.0,13.4,1505.2,331.8,-0.8,1.8,2471.411,13.29,0.014,42.3
2023-06-08T02:04:03,42.805,6.029,-0.004,0.029,0.012,101.0,101.0,100.0,13.4,1505.2,322.5,-0.8,1.8,2471.448,13.29,0.029,352.2
2023-06-08T02:07:03,42.805,6.029,0.013,0.023,0.022,101.0,100.0,101.0,13.3,1505.2,342.9,-0.8,1.8,2471.506,13.29,0.026,29.5
2023-06-08T02:10:03,42.805,6.029,-0.009,0.04,-0.011,101.0,101.0,100.0,13.4,1505.2,347.9,-0.8,1.8,2471.486,13.29,0.041,347.3
2023-06-08T02:13:03,42.805,6.029,0.027,0.027,0.005,102.0,101.0,100.0,13.3,1505.2,337.1,-0.8,1.8,2471.473,13.29,0.038,45.0
2023-06-08T02:16:03,42.805,6.029,0.004,0.03,-0.022,101.0,102.0,101.0,13.3,1505.2,338.2,-0.7,1.8,2471.409,13.29,0.03,7.6
2023-06-08T02:19:04,42.805,6.029,0.007,0.001,-0.036,103.0,100.0,101.0,13.3,1505.2,341.9,-0.8,1.8,2471.399,13.29,0.007,81.9
2023-06-08T02:22:03,42.805,6.029,0.014,0.03,-0.016,101.0,102.0,101.0,13.3,1505.2,323.6,-0.8,1.8,2471.434,13.29,0.033,25.0
2023-06-08T02:25:03,42.805,6.029,0.023,0.016,0.014,102.0,102.0,101.0,13.3,1505.2,330.9,-0.8,1.8,2471.418,13.29,0.028,55.2
2023-06-08T02:28:03,42.805,6.029,0.023,-0.003,-0.038,102.0,102.0,101.0,13.4,1505.2,333.9,-0.8,1.8,2471.405,13.29,0.023,97.4
2023-06-08T02:31:12,42.805,6.029,-0.001,0.025,-0.014,101.0,104.0,101.0,13.4,1505.2,349.7,-0.8,1.8,2471.423,13.29,0.025,357.7
2023-06-08T02:34:03,42.805,6.029,0.0,0.014,0.005,102.0,103.0,100.0,13.3,1505.2,321.3,-0.8,1.8,2471.438,13.29,0.014,0.0
2023-06-08T02:37:04,42.805,6.029,0.016,0.01,0.013,102.0,101.0,100.0,13.4,1505.2,332.5,-0.7,1.8,2471.411,13.29,0.018,58.0
2023-06-08T02:40:03,42.805,6.029,0.03,0.013,-0.004,100.0,102.0,101.0,13.3,1505.2,334.4,-0.7,1.8,2471.436,13.29,0.032,66.6
2023-06-08T02:43:03,42.805,6.029,0.013,0.03,-0.001,102.0,104.0,100.0,13.4,1505.2,345.3,-0.8,1.8,2471.452,13.29,0.032,23.4
2023-06-08T02:46:03,42.805,6.029,0.009,0.021,0.004,101.0,104.0,101.0,13.4,1505.2,335.4,-0.7,1.8,2471.436,13.29,0.022,23.2
2023-06-08T02:49:03,42.805,6.029,0.01,0.019,-0.01,101.0,103.0,101.0,13.3,1505.2,328.8,-0.7,1.8,2471.409,13.29,0.021,27.8
2023-06-08T02:52:04,42.805,6.029,0.003,0.019,-0.01,101.0,103.0,100.0,13.4,1505.2,341.2,-0.8,1.8,2471.386,13.29,0.019,9.0
2023-06-08T02:55:03,42.805,6.029,0.007,0.023,0.008,101.0,101.0,101.0,13.3,1505.2,331.9,-0.8,1.8,2471.373,13.29,0.024,16.9
2023-06-08T02:58:03,42.805,6.029,-0.001,0.019,-0.012,101.0,102.0,101.0,13.4,1505.2,348.4,-0.7,1.8,2471.433,13.29,0.019,357.0
2023-06-08T03:04:03,42.805,6.029,0.011,0.021,-0.018,102.0,103.0,100.0,13.4,1505.2,337.9,-0.7,1.8,2471.424,13.28,0.023,27.6
2023-06-08T03:07:03,42.805,6.029,0.064,0.023,0.025,101.0,103.0,101.0,13.4,1505.2,331.3,-0.8,1.8,2471.434,13.29,0.068,70.2
2023-06-08T03:10:03,42.805,6.029,-0.013,0.018,-0.02,101.0,102.0,100.0,13.3,1505.2,336.5,-0.8,1.8,2471.396,13.29,0.022,324.2
2023-06-08T03:13:03,42.805,6.029,0.005,0.01,0.001,102.0,102.0,99.0,13.4,1505.2,334.4,-0.8,1.8,2471.403,13.29,0.011,26.6
2023-06-08T03:16:03,42.805,6.029,0.034,-0.003,0.008,101.0,101.0,100.0,13.3,1505.2,344.8,-0.8,1.8,2471.406,13.29,0.034,95.0
2023-06-08T03:19:03,42.805,6.029,0.035,-0.006,-0.033,100.0,104.0,101.0,13.4,1505.2,323.1,-0.8,1.8,2471.393,13.29,0.035,99.7
2023-06-08T03:22:04,42.805,6.029,0.031,0.003,-0.016,102.0,103.0,100.0,13.4,1505.2,322.0,-0.8,1.8,2471.411,13.29,0.031,84.5
2023-06-08T03:25:03,42.805,6.029,0.032,0.008,0.004,101.0,104.0,100.0,13.3,1505.2,342.5,-0.7,1.8,2471.404,13.29,0.032,76.0
2023-06-08T03:28:03,42.805,6.029,-0.006,0.025,0.013,102.0,101.0,100.0,13.4,1505.2,333.9,-0.8,1.8,2471.389,13.29,0.025,346.5
2023-06-08T03:31:03,42.805,6.029,0.044,-0.011,0.004,102.0,102.0,100.0,13.4,1505.2,348.6,-0.8,1.8,2471.394,13.29,0.045,104.0
2023-06-08T03:34:03,42.805,6.029,0.031,0.043,0.056,101.0,102.0,101.0,13.4,1505.2,330.8,-0.7,1.8,2471.41,13.29,0.053,35.8
2023-06-08T03:37:03,42.805,6.029,0.024,0.012,0.008,101.0,103.0,101.0,13.4,1505.2,341.2,-0.7,1.8,2471.375,13.29,0.026,63.4
2023-06-08T03:40:03,42.805,6.029,0.011,0.023,-0.015,101.0,101.0,100.0,13.4,1505.2,321.1,-0.8,1.8,2471.373,13.29,0.025,25.6
2023-06-08T03:43:03,42.805,6.029,0.013,0.013,0.015,102.0,101.0,100.0,13.4,1505.2,340.4,-0.7,1.9,2471.347,13.29,0.018,45.0
2023-06-08T03:46:03,42.805,6.029,0.007,0.026,0.002,100.0,103.0,101.0,13.4,1505.2,339.3,-0.8,1.8,2471.368,13.29,0.026,15.1
2023-06-08T03:49:03,42.805,6.029,0.046,-0.006,0.039,99.0,101.0,101.0,13.4,1505.2,349.9,-0.7,1.8,2471.367,13.29,0.046,97.4
2023-06-08T03:52:13,42.805,6.029,0.025,0.01,-0.009,102.0,101.0,101.0,13.4,1505.2,341.5,-0.8,1.8,2471.357,13.29,0.026,68.2
2023-06-08T03:55:03,42.805,6.029,0.018,0.005,-0.022,102.0,103.0,100.0,13.4,1505.2,342.7,-0.7,1.8,2471.355,13.29,0.018,74.5
2023-06-08T03:58:03,42.805,6.029,0.037,-0.01,0.012,102.0,104.0,100.0,13.4,1505.2,343.8,-0.8,1.8,2471.353,13.29,0.038,105.1
2023-06-08T04:04:03,42.805,6.029,0.011,0.011,-0.036,101.0,103.0,100.0,13.3,1505.2,327.8,-0.7,1.9,2471.382,13.28,0.015,45.0
2023-06-08T04:07:04,42.805,6.029,0.033,0.016,0.028,101.0,103.0,100.0,13.3,1505.2,341.9,-0.8,1.8,2471.4,13.28,0.036,64.1
2023-06-08T04:10:03,42.805,6.029,0.02,0.0,-0.009,102.0,102.0,100.0,13.4,1505.2,331.4,-0.8,1.9,2471.356,13.29,0.02,90.0
2023-06-08T04:13:09,42.805,6.029,0.006,0.016,-0.026,100.0,103.0,101.0,13.4,1505.2,341.1,-0.8,1.8,2471.369,13.29,0.017,20.6
2023-06-08T04:16:03,42.805,6.029,0.02,0.034,0.001,102.0,101.0,101.0,13.4,1505.2,331.0,-0.8,1.8,2471.317,13.29,0.039,30.5
2023-06-08T04:19:03,42.805,6.029,0.032,-0.003,-0.026,102.0,102.0,100.0,13.4,1505.2,332.1,-0.7,1.8,2471.396,13.29,0.032,95.4
2023-06-08T04:22:04,42.805,6.029,0.028,-0.002,0.0,101.0,102.0,100.0,13.4,1505.2,346.8,-0.8,1.8,2471.372,13.29,0.028,94.1
2023-06-08T04:25:03,42.805,6.029,0.011,0.015,-0.036,100.0,102.0,100.0,13.4,1505.2,329.0,-0.8,1.8,2471.335,13.29,0.018,36.3
2023-06-08T04:28:03,42.805,6.029,-0.003,0.045,0.036,103.0,102.0,100.0,13.4,1505.2,319.0,-0.8,1.8,2471.338,13.29,0.045,356.2
2023-06-08T04:31:08,42.805,6.029,0.035,0.012,-0.011,101.0,101.0,101.0,13.4,1505.2,332.5,-0.7,1.8,2471.338,13.29,0.037,71.1
2023-06-08T04:34:03,42.805,6.029,0.044,-0.01,-0.01,101.0,102.0,100.0,13.4,1505.2,340.4,-0.8,1.8,2471.345,13.29,0.045,102.8
2023-06-08T04:37:03,42.805,6.029,0.026,0.027,0.003,101.0,103.0,102.0,13.4,1505.2,322.5,-0.8,1.8,2471.328,13.29,0.037,43.9
2023-06-08T04:40:03,42.805,6.029,0.014,0.008,-0.005,101.0,104.0,100.0,13.3,1505.2,332.9,-0.8,1.8,2471.328,13.29,0.016,60.3
2023-06-08T04:43:03,42.805,6.029,0.026,0.008,0.009,101.0,101.0,101.0,13.4,1505.2,332.9,-0.8,1.8,2471.34,13.29,0.027,72.9
2023-06-08T04:46:03,42.805,6.029,0.0,0.031,0.002,101.0,101.0,101.0,13.3,1505.2,343.9,-0.8,1.8,2471.332,13.29,0.03,0.0
2023-06-08T04:49:03,42.805,6.029,0.021,0.017,0.001,102.0,103.0,101.0,13.4,1505.2,324.5,-0.8,1.8,2471.338,13.29,0.027,51.0
2023-06-08T04:52:14,42.805,6.029,0.011,0.01,0.013,102.0,102.0,101.0,13.4,1505.2,348.4,-0.8,1.9,2471.341,13.29,0.014,47.7
2023-06-08T04:55:03,42.805,6.029,0.034,0.012,-0.007,101.0,102.0,100.0,13.4,1505.2,318.9,-0.8,1.8,2471.32,13.29,0.036,70.6
2023-06-08T04:58:04,42.805,6.029,0.029,0.003,-0.014,101.0,102.0,101.0,13.4,1505.2,330.3,-0.8,1.8,2471.314,13.29,0.029,84.1
2023-06-08T05:04:03,42.805,6.029,0.037,-0.002,-0.023,102.0,104.0,100.0,13.4,1505.2,330.9,-0.7,1.8,2471.39,13.28,0.037,93.1
2023-06-08T05:07:03,42.805,6.029,0.013,0.007,0.015,101.0,101.0,101.0,13.4,1505.2,338.3,-0.8,1.8,2471.369,13.28,0.014,61.7
2023-06-08T05:10:03,42.805,6.029,0.03,0.014,0.009,101.0,103.0,101.0,13.3,1505.2,340.4,-0.7,1.8,2471.369,13.29,0.033,65.0
2023-06-08T05:13:03,42.805,6.029,0.028,0.038,0.014,103.0,102.0,100.0,13.3,1505.2,345.9,-0.8,1.8,2471.363,13.29,0.047,36.4
2023-06-08T05:16:03,42.805,6.029,0.031,0.013,-0.007,102.0,102.0,100.0,13.4,1505.2,322.7,-0.8,1.8,2471.34,13.29,0.033,67.3
2023-06-08T05:19:03,42.805,6.029,0.035,0.018,0.015,101.0,103.0,100.0,13.4,1505.2,333.0,-0.8,1.8,2471.343,13.29,0.039,62.8
2023-06-08T05:22:03,42.805,6.029,0.018,0.012,0.023,102.0,104.0,100.0,13.3,1505.2,330.8,-0.8,1.8,2471.362,13.29,0.021,56.3
2023-06-08T05:25:03,42.805,6.029,0.033,0.01,0.007,102.0,102.0,100.0,13.3,1505.2,348.2,-0.8,1.8,2471.359,13.29,0.034,73.1
2023-06-08T05:28:03,42.805,6.029,0.005,0.008,-0.009,101.0,101.0,102.0,13.3,1505.2,337.6,-0.8,1.8,2471.322,13.29,0.009,32.0
2023-06-08T05:31:03,42.805,6.029,0.032,0.01,-0.003,103.0,100.0,101.0,13.3,1505.2,340.4,-0.8,1.8,2471.301,13.29,0.033,72.6
2023-06-08T05:34:04,42.805,6.029,0.06,-0.011,0.029,101.0,103.0,100.0,13.4,1505.2,350.3,-0.8,1.8,2471.332,13.29,0.06,100.4
2023-06-08T05:37:03,42.805,6.029,0.023,-0.002,-0.027,100.0,102.0,101.0,13.4,1505.2,323.5,-0.8,1.8,2471.33,13.29,0.023,95.0
2023-06-08T05:40:03,42.805,6.029,0.009,0.026,-0.003,103.0,103.0,100.0,13.3,1505.2,336.5,-0.8,1.8,2471.343,13.29,0.027,19.1
2023-06-08T05:43:08,42.805,6.029,0.03,0.02,0.016,101.0,103.0,100.0,13.4,1505.2,330.2,-0.7,1.8,2471.363,13.29,0.036,56.3
2023-06-08T05:46:13,42.805,6.029,0.049,0.003,0.009,101.0,102.0,100.0,13.3,1505.2,340.5,-0.8,1.8,2471.325,13.29,0.049,86.5
2023-06-08T05:49:03,42.805,6.029,0.031,0.006,0.029,102.0,105.0,100.0,13.4,1505.2,348.2,-0.8,1.8,2471.308,13.29,0.031,79.0
2023-06-08T05:52:03,42.805,6.029,0.04,0.001,-0.014,101.0,103.0,100.0,13.4,1505.2,326.3,-0.8,1.9,2471.309,13.29,0.04,88.6
2023-06-08T05:55:03,42.805,6.029,0.043,0.01,0.011,102.0,103.0,100.0,13.3,1505.2,319.6,-0.8,1.8,2471.315,13.29,0.044,76.9
2023-06-08T05:58:03,42.805,6.029,0.038,0.004,0.036,100.0,103.0,101.0,13.3,1505.2,329.5,-0.8,1.8,2471.325,13.29,0.038,84.0
2023-06-08T06:04:03,42.805,6.029,0.019,0.0,0.004,102.0,102.0,101.0,13.4,1505.2,346.8,-0.8,1.8,2471.385,13.28,0.019,90.0
2023-06-08T06:07:03,42.805,6.029,0.02,-0.01,-0.03,100.0,102.0,101.0,13.3,1505.2,329.0,-0.8,1.8,2471.358,13.28,0.022,116.6
2023-06-08T06:10:04,42.805,6.029,0.026,0.003,-0.017,100.0,104.0,101.0,13.3,1505.2,341.1,-0.8,1.8,2471.348,13.28,0.026,83.4
2023-06-08T06:13:03,42.805,6.029,0.01,-0.007,-0.034,102.0,102.0,101.0,13.3,1505.2,327.9,-0.8,1.8,2471.329,13.29,0.012,125.0
2023-06-08T06:16:03,42.805,6.029,0.011,0.012,-0.001,102.0,102.0,101.0,13.4,1505.2,340.8,-0.8,1.8,2471.325,13.29,0.016,42.5
2023-06-08T06:19:03,42.805,6.029,0.038,-0.007,-0.005,102.0,102.0,100.0,13.3,1505.2,332.1,-0.8,1.8,2471.361,13.29,0.038,100.4
2023-06-08T06:22:03,42.805,6.029,0.022,0.023,-0.006,101.0,102.0,102.0,13.4,1505.2,335.5,-0.8,1.8,2471.356,13.29,0.031,43.7
2023-06-08T06:25:03,42.805,6.029,-0.011,0.011,-0.028,102.0,102.0,100.0,13.3,1505.2,324.4,-0.8,1.8,2471.336,13.29,0.015,315.0
2023-06-08T06:28:03,42.805,6.029,0.01,0.003,-0.026,101.0,102.0,101.0,13.3,1505.2,342.8,-0.7,1.8,2471.357,13.29,0.01,73.3
2023-06-08T06:31:03,42.805,6.029,0.037,-0.001,-0.031,101.0,101.0,102.0,13.3,1505.2,341.2,-0.7,1.8,2471.351,13.29,0.037,91.5
2023-06-08T06:34:04,42.805,6.029,0.024,0.025,0.026,101.0,102.0,101.0,13.4,1505.2,328.2,-0.8,1.8,2471.36,13.29,0.034,43.8
2023-06-08T06:37:03,42.805,6.029,0.036,-0.005,0.0,101.0,102.0,100.0,13.4,1505.2,326.6,-0.7,1.8,2471.355,13.29,0.036,97.9
2023-06-08T06:40:03,42.805,6.029,0.02,0.013,0.016,102.0,102.0,100.0,13.4,1505.2,330.1,-0.8,1.8,2471.323,13.29,0.023,57.0
2023-06-08T06:43:03,42.805,6.029,0.011,0.034,0.025,101.0,102.0,101.0,13.3,1505.2,318.9,-0.8,1.8,2471.351,13.29,0.035,17.9
2023-06-08T06:46:05,42.805,6.029,0.054,-0.012,-0.002,102.0,103.0,101.0,13.4,1505.2,332.9,-0.7,1.8,2471.334,13.29,0.055,102.5
2023-06-08T06:49:03,42.805,6.029,0.022,0.004,-0.013,103.0,103.0,100.0,13.4,1505.2,328.3,-0.8,1.8,2471.381,13.29,0.022,79.7
2023-06-08T06:52:03,42.805,6.029,0.048,-0.001,-0.017,101.0,104.0,100.0,13.4,1505.2,326.5,-0.7,1.8,2471.321,13.29,0.048,91.2
2023-06-08T06:55:03,42.805,6.029,0.049,0.005,0.031,101.0,103.0,101.0,13.3,1505.2,338.2,-0.7,1.8,2471.356,13.29,0.049,84.2
2023-06-08T06:58:06,42.805,6.029,0.044,-0.014,-0.021,101.0,102.0,101.0,13.3,1505.2,325.7,-0.8,1.8,2471.372,13.29,0.046,107.6
2023-06-08T07:04:15,42.805,6.029,0.055,0.004,0.011,101.0,103.0,101.0,13.3,1505.2,325.6,-0.7,1.8,2471.377,13.28,0.055,85.8
2023-06-08T07:07:03,42.805,6.029,0.049,0.001,0.009,101.0,103.0,101.0,13.4,1505.2,344.7,-0.7,1.8,2471.382,13.28,0.049,88.8
2023-06-08T07:10:03,42.805,6.029,0.024,0.014,-0.029,101.0,103.0,100.0,13.4,1505.2,322.6,-0.8,1.8,2471.401,13.28,0.027,59.7
2023-06-08T07:13:03,42.805,6.029,0.033,0.005,-0.008,102.0,103.0,101.0,13.4,1505.2,339.7,-0.8,1.8,2471.378,13.28,0.033,81.4
2023-06-08T07:16:03,42.805,6.029,0.053,0.023,0.027,101.0,103.0,101.0,13.3,1505.2,321.6,-0.8,1.8,2471.379,13.29,0.057,66.5
2023-06-08T07:19:03,42.805,6.029,0.025,-0.011,-0.032,99.0,104.0,102.0,13.4,1505.2,333.8,-0.8,1.8,2471.363,13.29,0.027,113.7
2023-06-08T07:22:10,42.805,6.029,0.046,0.011,0.02,102.0,103.0,101.0,13.4,1505.2,331.4,-0.8,1.8,2471.366,13.29,0.047,76.6
2023-06-08T07:25:03,42.805,6.029,0.01,-0.005,-0.069,101.0,104.0,101.0,13.4,1505.2,348.4,-0.8,1.8,2471.375,13.29,0.011,116.6
2023-06-08T07:28:03,42.805,6.029,0.046,-0.012,0.007,102.0,103.0,100.0,13.4,1505.2,330.1,-0.8,1.8,2471.354,13.29,0.047,104.6
2023-06-08T07:31:03,42.805,6.029,0.04,0.001,0.011,102.0,102.0,101.0,13.4,1505.2,337.9,-0.8,1.8,2471.328,13.29,0.04,88.6
2023-06-08T07:34:03,42.805,6.029,0.054,0.01,-0.006,101.0,104.0,101.0,13.4,1505.2,336.9,-0.8,1.8,2471.376,13.29,0.054,79.5
2023-06-08T07:37:03,42.805,6.029,0.04,0.013,0.005,102.0,103.0,100.0,13.4,1505.2,333.4,-0.7,1.8,2471.383,13.29,0.042,72.0
2023-06-08T07:40:03,42.805,6.029,0.039,-0.003,-0.009,101.0,102.0,102.0,13.3,1505.2,329.5,-0.8,1.8,2471.39,13.29,0.039,94.4
2023-06-08T07:43:03,42.805,6.029,0.051,0.007,-0.008,102.0,103.0,101.0,13.4,1505.2,331.8,-0.8,1.8,2471.328,13.29,0.051,82.2
2023-06-08T07:46:03,42.805,6.029,0.052,-0.005,-0.017,103.0,102.0,100.0,13.3,1505.2,340.2,-0.8,1.8,2471.394,13.29,0.052,95.5
2023-06-08T07:49:03,42.805,6.029,0.039,-0.008,-0.02,102.0,103.0,101.0,13.4,1505.2,341.5,-0.8,1.8,2471.366,13.29,0.039,101.6
2023-06-08T07:52:03,42.805,6.029,0.025,-0.007,-0.026,101.0,104.0,101.0,13.4,1505.2,336.6,-0.8,1.8,2471.377,13.29,0.025,105.6
2023-06-08T07:55:03,42.805,6.029,0.022,0.0,-0.015,101.0,103.0,101.0,13.3,1505.2,322.2,-0.8,1.8,2471.403,13.29,0.022,90.0
2023-06-08T07:58:03,42.805,6.029,0.064,0.014,-0.003,102.0,103.0,101.0,13.3,1505.2,334.7,-0.8,1.8,2471.394,13.29,0.065,77.7
2023-06-08T08:04:04,42.805,6.029,0.042,0.015,-0.009,102.0,103.0,101.0,13.3,1505.2,336.6,-0.8,1.8,2471.389,13.28,0.044,70.4
2023-06-08T08:07:04,42.805,6.029,0.046,0.006,-0.016,101.0,102.0,101.0,13.3,1505.2,326.7,-0.8,1.8,2471.428,13.28,0.046,82.6
2023-06-08T08:10:03,42.805,6.029,0.024,0.007,0.001,102.0,100.0,101.0,13.4,1505.2,338.5,-0.8,1.8,2471.391,13.28,0.025,73.7
2023-06-08T08:13:03,42.805,6.029,0.061,-0.018,-0.017,102.0,101.0,102.0,13.3,1505.2,332.4,-0.8,1.8,2471.371,13.29,0.063,106.4
2023-06-08T08:16:03,42.805,6.029,0.029,-0.01,-0.005,101.0,102.0,101.0,13.4,1505.2,339.1,-0.8,1.8,2471.379,13.29,0.03,109.0
2023-06-08T08:19:03,42.805,6.029,0.052,0.025,0.032,102.0,102.0,101.0,13.4,1505.2,337.9,-0.8,1.8,2471.397,13.29,0.057,64.3
2023-06-08T08:22:03,42.805,6.029,0.049,0.019,0.001,102.0,102.0,101.0,13.3,1505.2,336.6,-0.8,1.8,2471.401,13.29,0.052,68.8
2023-06-08T08:25:06,42.805,6.029,0.028,-0.007,-0.04,101.0,102.0,101.0,13.4,1505.2,340.3,-0.7,1.8,2471.402,13.29,0.028,104.0
2023-06-08T08:28:03,42.805,6.029,0.037,0.026,-0.004,101.0,102.0,101.0,13.3,1505.2,322.1,-0.8,1.8,2471.366,13.29,0.045,54.9
2023-06-08T08:31:03,42.805,6.029,0.039,-0.017,-0.024,102.0,102.0,101.0,13.4,1505.2,326.0,-0.8,1.8,2471.414,13.29,0.042,113.5
2023-06-08T08:34:04,42.805,6.029,0.038,0.0,0.0,101.0,102.0,101.0,13.4,1505.2,345.9,-0.8,1.8,2471.362,13.29,0.038,90.0
2023-06-08T08:37:03,42.805,6.029,0.047,0.006,-0.001,100.0,102.0,102.0,13.4,1505.2,335.1,-0.7,1.8,2471.393,13.29,0.047,82.7
2023-06-08T08:40:03,42.805,6.029,0.043,0.011,-0.005,103.0,102.0,100.0,13.4,1505.2,333.4,-0.8,1.8,2471.408,13.29,0.044,75.7
2023-06-08T08:43:03,42.805,6.029,0.031,-0.01,-0.05,102.0,102.0,101.0,13.4,1505.2,325.4,-0.8,1.8,2471.401,13.29,0.032,107.9
2023-06-08T08:46:03,42.805,6.029,0.041,-0.002,-0.017,101.0,101.0,101.0,13.3,1505.2,349.1,-0.8,1.8,2471.4,13.29,0.041,92.8
2023-06-08T08:49:03,42.805,6.029,0.054,0.01,-0.05,102.0,101.0,101.0,13.3,1505.2,318.2,-0.8,1.8,2471.38,13.29,0.054,79.5
2023-06-08T08:52:03,42.805,6.029,0.065,0.009,-0.014,103.0,102.0,100.0,13.3,1505.2,337.3,-0.7,1.8,2471.414,13.29,0.065,82.1
2023-06-08T08:55:03,42.805,6.029,0.048,0.005,-0.034,102.0,101.0,101.0,13.4,1505.2,331.9,-0.7,1.8,2471.401,13.29,0.048,84.1
2023-06-08T08:58:03,42.805,6.029,0.047,0.007,-0.005,101.0,102.0,100.0,13.4,1505.2,332.5,-0.8,1.8,2471.398,13.29,0.047,81.5
2023-06-08T09:04:04,42.805,6.029,0.064,-0.022,-0.002,101.0,102.0,101.0,13.4,1505.2,327.6,-0.8,1.8,2471.44,13.28,0.067,109.0
2023-06-08T09:07:03,42.805,6.029,0.048,-0.028,-0.036,101.0,103.0,101.0,13.3,1505.2,345.3,-0.8,1.8,2471.435,13.28,0.055,120.3
2023-06-08T09:10:03,42.805,6.029,0.024,0.007,-0.014,100.0,103.0,101.0,13.4,1505.2,324.8,-0.8,1.8,2471.462,13.28,0.025,73.7
2023-06-08T09:13:03,42.805,6.029,0.024,0.016,-0.009,102.0,102.0,102.0,13.3,1505.2,337.8,-0.7,1.8,2471.452,13.29,0.028,56.3
2023-06-08T09:16:03,42.805,6.029,0.045,-0.006,-0.04,102.0,103.0,100.0,13.3,1505.2,337.3,-0.8,1.8,2471.462,13.29,0.045,97.6
2023-06-08T09:19:03,42.805,6.029,0.039,0.003,-0.02,102.0,101.0,101.0,13.3,1505.2,328.8,-0.8,1.8,2471.452,13.29,0.039,85.6
2023-06-08T09:22:03,42.805,6.029,0.039,-0.009,-0.007,101.0,102.0,101.0,13.4,1505.2,348.8,-0.7,1.9,2471.454,13.29,0.04,103.0
2023-06-08T09:25:03,42.805,6.029,0.067,0.011,0.0,101.0,101.0,101.0,13.4,1505.2,326.9,-0.8,1.8,2471.432,13.29,0.067,80.7
2023-06-08T09:28:03,42.805,6.029,0.028,-0.025,-0.071,102.0,102.0,101.0,13.4,1505.2,348.4,-0.8,1.8,2471.426,13.29,0.037,131.8
2023-06-08T09:31:03,42.805,6.029,0.056,-0.004,0.005,101.0,102.0,101.0,13.4,1505.2,340.2,-0.8,1.8,2471.447,13.29,0.056,94.1
2023-06-08T09:34:03,42.805,6.029,0.034,0.007,-0.02,103.0,101.0,101.0,13.4,1505.2,319.0,-0.8,1.8,2471.376,13.29,0.034,78.4
2023-06-08T09:37:03,42.805,6.029,0.028,0.002,0.007,102.0,101.0,101.0,13.4,1505.2,337.7,-0.8,1.8,2471.376,13.29,0.028,85.9
2023-06-08T09:40:03,42.805,6.029,0.051,-0.001,-0.024,101.0,103.0,101.0,13.4,1505.2,330.6,-0.8,1.8,2471.403,13.29,0.051,91.1
2023-06-08T09:43:03,42.805,6.029,0.053,-0.026,-0.034,101.0,101.0,101.0,13.4,1505.2,350.1,-0.8,1.8,2471.389,13.29,0.059,116.1
2023-06-08T09:46:03,42.805,6.029,0.036,-0.004,-0.042,101.0,101.0,101.0,13.4,1505.2,321.7,-0.8,1.8,2471.38,13.29,0.036,96.3
2023-06-08T09:49:03,42.805,6.029,0.033,-0.026,-0.072,101.0,102.0,101.0,13.4,1505.2,329.5,-0.7,1.8,2471.408,13.29,0.042,128.2
2023-06-08T09:52:04,42.805,6.029,0.042,0.002,-0.004,102.0,100.0,101.0,13.4,1505.2,348.6,-0.8,1.8,2471.363,13.29,0.042,87.3
2023-06-08T09:55:03,42.805,6.029,0.031,0.001,-0.028,102.0,101.0,100.0,13.4,1505.2,326.7,-0.8,1.8,2471.4,13.29,0.031,88.2
2023-06-08T09:58:03,42.805,6.029,0.033,0.021,-0.021,102.0,102.0,101.0,13.4,1505.2,329.6,-0.7,1.9,2471.39,13.29,0.039,57.5
2023-06-08T10:04:03,42.805,6.029,0.044,0.0,-0.044,101.0,101.0,100.0,13.4,1505.2,345.3,-0.7,1.8,2471.428,13.28,0.044,90.0